This demonstration page uses our WeatherBlox Daily Observations layout. Learn more.

Left ArrowRight Arrow

Hourly Observations for August 9, 2021

Temp ( °F °C ) Dew Point ( °F °C ) Humidity (%) Winds ( mph kmh ) Pressure ( in mb ) Visibility ( mi km ) Precip ( " mm )
12:15 am 00:15 Clear 71 21.8 66 18.9 84 84 S 6 9 29.74 1007 10 16 0.00 0.00
12:35 am 00:35 Clear 71 21.5 66 18.8 85 85 S 5 7 29.75 1007 10 16 0.00 0.00
12:55 am 00:55 Clear 70 21.3 65 18.5 84 84 S 6 9 29.75 1007 10 16 0.00 0.00
1:15 am 01:15 Clear 71 21.5 65 18.5 83 83 S 6 9 29.75 1007 10 16 0.00 0.00
1:35 am 01:35 Clear 72 22 64 18 78 78 SSW 7 11 29.74 1007 10 16 0.00 0.00
1:55 am 01:55 Clear 71 21.8 64 17.5 77 77 S 6 9 29.74 1007 10 16 0.00 0.00
2:15 am 02:15 undefined 71 21.5 63 17.1 76 76 SSW 6 9 29.74 1007 10 16 0.00 0.00
2:35 am 02:35 Clear 70 21.1 63 17 78 78 SSW 6 9 29.74 1007 10 16 0.00 0.00
2:55 am 02:55 Clear 69 20.8 62 16.8 78 78 SSW 6 9 29.74 1007 10 16 0.00 0.00
3:15 am 03:15 Clear 70 21 62 16.5 76 76 SSW 6 9 29.74 1007 10 16 0.00 0.00
3:35 am 03:35 Clear 70 20.9 61 15.9 73 73 SSW 6 9 29.73 1007 10 16 0.00 0.00
3:55 am 03:55 Clear 69 20.4 60 15.5 74 74 SW 7 11 29.73 1007 10 16 0.00 0.00
4:15 am 04:15 Clear 69 20.5 60 15.5 73 73 SSW 7 11 29.74 1007 10 16 0.00 0.00
4:35 am 04:35 Clear 69 20.7 59 15.1 70 70 SSW 8 13 29.74 1007 10 16 0.00 0.00
4:55 am 04:55 Clear 69 20.7 59 14.8 69 69 SSW 7 11 29.74 1007 10 16 0.00 0.00
5:15 am 05:15 Clear 69 20.7 58 14.6 68 68 SSW 7 11 29.74 1007 10 16 0.00 0.00
5:35 am 05:35 Clear 67 19.4 59 14.8 75 75 SSW 5 7 29.75 1008 10 16 0.00 0.00
5:55 am 05:55 Clear 67 19.6 58 14.5 73 73 SSW 6 9 29.75 1007 10 16 0.00 0.00
6:15 am 06:15 Clear 66 19 58 14.6 76 76 SW 7 11 29.76 1008 10 16 0.00 0.00
6:35 am 06:35 Clear 67 19.2 58 14.5 74 74 SSW 7 11 29.75 1008 10 16 0.00 0.00
6:55 am 06:55 Sunny 67 19.3 58 14.2 72 72 SW 7 11 29.75 1008 7 11 0.00 0.00
7:15 am 07:15 Sunny 67 19.4 58 14.2 72 72 SW 7 11 29.75 1008 7 11 0.00 0.00
7:35 am 07:35 Sunny 68 20.1 58 14.3 69 69 SW 6 9 29.75 1007 7 11 0.00 0.00
7:55 am 07:55 Sunny 69 20.7 58 14.5 68 68 SSW 7 11 29.74 1007 7 11 0.00 0.00
8:15 am 08:15 Sunny 70 21.3 59 15.2 68 68 SW 6 9 29.75 1007 7 11 0.00 0.00
8:35 am 08:35 Sunny 72 22.4 60 15.5 65 65 SW 7 11 29.74 1007 7 11 0.00 0.00
8:55 am 08:55 Sunny 74 23.6 60 15.7 61 61 SW 8 13 29.73 1007 10 16 0.00 0.00
9:15 am 09:15 Sunny 77 24.8 63 17.1 62 62 SSW 6 9 29.72 1006 7 11 0.00 0.00
9:30 am 09:30 Sunny 78 25.7 62 16.6 57 57 SW 7 11 29.71 1006 10 16 0.00 0.00
9:55 am 09:55 Sunny 80 26.5 64 17.7 59 59 SW 6 9 29.71 1006 10 16 0.00 0.00
10:15 am 10:15 Sunny 81 27.2 62 16.8 53 53 SSW 8 13 29.70 1006 10 16 0.00 0.00
10:35 am 10:35 Sunny 81 27.3 63 17.2 54 54 SSW 9 15 29.70 1006 10 16 0.00 0.00
10:55 am 10:55 Sunny 82 27.5 67 19.2 61 61 S 7 11 29.70 1006 10 16 0.00 0.00
11:15 am 11:15 Sunny 81 27.3 67 19.4 62 62 S 8 13 29.70 1006 10 16 0.00 0.00
11:35 am 11:35 Sunny 83 28.3 67 19.4 59 59 S 9 15 29.69 1005 10 16 0.00 0.00
11:55 am 11:55 Sunny 84 29.1 69 20.4 59 59 S 8 13 29.70 1006 10 16 0.00 0.00
12:15 pm 12:15 Sunny 86 29.9 66 18.9 52 52 SSW 10 17 29.69 1005 10 16 0.00 0.00
12:35 pm 12:35 Sunny 87 30.7 67 19.7 52 52 SW 8 13 29.68 1005 10 16 0.00 0.00
12:55 pm 12:55 Sunny 89 31.5 66 19 47 47 SSW 10 17 29.67 1005 10 16 0.00 0.00
1:15 pm 13:15 Sunny 89 31.6 69 20.3 51 51 S 10 17 29.67 1005 10 16 0.00 0.00
1:35 pm 13:35 Sunny 90 32.3 68 20.1 48 48 S 10 17 29.66 1004 10 16 0.00 0.00
1:55 pm 13:55 Sunny 91 32.6 69 20.3 48 48 S 9 15 29.65 1004 10 16 0.00 0.00
2:15 pm 14:15 Sunny 92 33.1 68 20.1 46 46 S 10 17 29.64 1004 10 16 0.00 0.00
2:35 pm 14:35 Sunny 92 33.5 69 20.5 46 46 S 9 15 29.63 1003 10 16 0.00 0.00
2:55 pm 14:55 Sunny 93 34 70 21 47 47 S 9 15 29.63 1003 10 16 0.00 0.00
3:15 pm 15:15 Sunny 94 34.4 70 21.1 46 46 SSE 7 11 29.63 1003 10 16 0.00 0.00
3:35 pm 15:35 Sunny 95 34.8 70 21.3 45 45 SSE 7 11 29.61 1003 10 16 0.00 0.00
3:55 pm 15:55 Sunny 95 35.1 69 20.8 43 43 SSE 9 15 29.60 1002 10 16 0.00 0.00
4:15 pm 16:15 Sunny 95 35 73 22.9 49 49 SSE 8 13 29.60 1002 10 16 0.00 0.00
4:35 pm 16:35 Sunny 95 35 70 21.3 45 45 SSE 7 11 29.59 1002 10 16 0.00 0.00
4:55 pm 16:55 Sunny 95 34.8 71 21.7 46 46 SSE 7 11 29.59 1002 10 16 0.00 0.00
5:15 pm 17:15 Sunny 94 34.6 71 21.4 46 46 SSE 6 9 29.59 1002 10 16 0.00 0.00
5:35 pm 17:35 Sunny 94 34.5 71 21.9 48 48 SSE 7 11 29.59 1002 10 16 0.00 0.00
5:55 pm 17:55 Sunny 93 33.9 71 21.6 49 49 SSE 7 11 29.60 1002 10 16 0.00 0.00
6:15 pm 18:15 Sunny 91 33 69 20.7 48 48 SSE 6 9 29.61 1003 10 16 0.00 0.00
6:35 pm 18:35 Sunny 88 31.1 69 20.5 53 53 SSE 5 7 29.62 1003 10 16 0.00 0.00
6:55 pm 18:55 Sunny 86 30 70 21.2 59 59 SSE 7 11 29.63 1003 10 16 0.00 0.00
7:15 pm 19:15 Sunny 86 29.8 70 20.9 59 59 SSE 7 11 29.63 1003 10 16 0.00 0.00
7:35 pm 19:35 Sunny 85 29.2 68 20.1 58 58 SSE 7 11 29.63 1004 10 16 0.00 0.00
7:55 pm 19:55 Sunny 83 28.6 67 19.2 57 57 SSE 5 7 29.66 1004 10 16 0.00 0.00
8:15 pm 20:15 Sunny 82 28 66 18.9 58 58 SSE 5 7 29.67 1005 10 16 0.00 0.00
8:35 pm 20:35 Sunny 82 27.6 65 18.6 58 58 Calm 29.69 1005 10 16 0.00 0.00
8:55 pm 20:55 Clear 80 26.4 66 19 64 64 NW 5 7 29.72 1006 10 16 0.00 0.00
9:15 pm 21:15 Clear 83 28.5 65 18.2 54 54 Calm 29.71 1006 10 16 0.00 0.00
9:35 pm 21:35 Clear 82 27.8 64 17.9 55 55 NNW 3 6 29.73 1007 10 16 0.00 0.00
9:55 pm 21:55 Clear 81 27 64 18 58 58 WNW 10 17 29.75 1007 10 16 0.00 0.00
10:15 pm 22:15 Clear 84 28.7 57 13.7 40 40 NNW 9 15 29.76 1008 10 16 0.00 0.00
10:35 pm 22:35 Clear 82 27.8 55 12.6 39 39 NNW 5 7 29.76 1008 10 16 0.00 0.00
10:55 pm 22:55 Clear 78 25.5 58 14.5 51 51 Calm 29.78 1009 10 16 0.00 0.00
11:15 pm 23:15 Clear 79 26 59 14.8 50 50 SW 3 6 29.78 1008 10 16 0.00 0.00
11:35 pm 23:35 Clear 78 25.5 57 14.1 49 49 W 12 19 29.79 1009 10 16 0.00 0.00
11:55 pm 23:55 Clear 78 25.6 58 14.5 50 50 W 13 20 29.79 1009 10 16 0.00 0.00

Powered by AerisWeather